Location: Rio Negrinho
(26.2394°S, 49.4999°W)
Time: 08:17:42
(UTC+00:00)

H-2A R/B - Pass Details

Date: 04 October 2020
Orbit: 500 x 542 km, 97.3° (Epoch: 17 June)

Event Time Altitude Azimuth Distance (km) Brightness Sun altitude
Rises 08:01:24 0° 26° (NNE) 2,623 6.5 -12.5°
Reaches altitude 10° 08:03:32 10° 33° (NNE) 1,751 5.7 -12.0°
Maximum altitude 08:07:06 41° 104° (ESE) 776 4.2 -11.2°
Drops below altitude 10° 08:10:46 10° 175° (S) 1,797 5.6 -10.4°
Sets 08:12:59 0° 181° (S) 2,702 6.5 -9.9°
